Regional Weather Roundup
Issued by NWS

Home | Current Version | Previous Version | Graphics & Text | Print | Product List | Glossary Off
Versions: 1 2 3 4 5 6 7 8 9 10 11 12 13 14 15 16 17 18 19 20 21 22 23 24 25 26 27 28 29 30 31 32 33 34 35 36 37 38 39 40 41 42 43 44 45 46 47 48 49 50

000
ASUS43 KLSX 281310
RWRMO

WEATHER SUMMARY FOR MISSOURI
NATIONAL WEATHER SERVICE SPRINGFIELD MO
800 AM CDT SUN AUG 28 2016

NOTE: "FAIR" INDICATES FEW OR NO CLOUDS BELOW 12,000 FEET WITH NO
       SIGNIFICANT WEATHER AND/OR OBSTRUCTIONS TO VISIBILITY.
       CURRENT SKY AND/OR WEATHER CONDITIONS ARE NOT AVAILABLE FOR
       CHILLICOTHE AND FARMINGTON.

MOZ001>031-035>038-043-044-053-054-281400-
...NORTHERN AND WESTERN MISSOURI...

CITY           SKY/WX    TMP DP  RH WIND       PRES   REMARKS
KANSAS CTY INT MOSUNNY   74  70  87 S3        30.12R
KANSAS C DTWN  SUNNY     77  72  84 CALM      30.10R
LEE`S SUMMIT   SUNNY     75  70  84 S3        30.12R
ST JOSEPH      SUNNY     73  70  90 CALM      30.11R
KIRKSVILLE     SUNNY     72  71  97 SE5       30.16R

$$
MOZ066>068-077>081-088>096-101>105-281400-
...SOUTHWEST MISSOURI...

CITY           SKY/WX    TMP DP  RH WIND       PRES   REMARKS
SPRINGFIELD    SUNNY     75  71  87 S6        30.15R
JOPLIN         SUNNY     75  72  90 S5        30.14R
BRANSON        MOSUNNY   70  70 100 CALM      30.17R

$$
MOZ032>034-039>042-045>050-055>058-069>072-281400-
...CENTRAL MISSOURI...

CITY           SKY/WX    TMP DP  RH WIND       PRES   REMARKS
COLUMBIA       SUNNY     75  73  93 S3        30.15R
JEFFERSON CITY MOSUNNY   74  72  93 CALM      30.14R
ROLLA          SUNNY     74  71  91 S6        30.16R
SEDALIA        PTSUNNY   75  72  90 S7        30.15R
WHITEMAN AFB   SUNNY     73  73 100 S6        30.12R
OSAGE BEACH    SUNNY     73  71  93 CALM      30.16R

$$
MOZ051-052-059>065-281400-
...EAST CENTRAL MISSOURI...

CITY           SKY/WX    TMP DP  RH WIND       PRES   REMARKS
ST LOUIS INTL  PTSUNNY   79  73  82 E3        30.16R
SPIRIT OF STL  SUNNY     74  73  97 CALM      30.14R
ST CHARLES     SUNNY     75  75 100 E3        30.15R FOG

$$
MOZ072>076-082>087-097>100-106>115-281400-
...SOUTH CENTRAL AND SOUTHEAST MISSOURI...

CITY           SKY/WX    TMP DP  RH WIND       PRES   REMARKS
CAPE GIRARDEAU SUNNY     76  74  93 E3        30.14R
FARMINGTON     SUNNY     72  70  93 CALM      30.18R
POPLAR BLUFF   SUNNY     76  73  91 CALM      30.13R
WEST PLAINS    SUNNY     73  70  90 CALM      30.18R FOG

$$




USA.gov is the U.S. government's official web portal to all federal, state and local government web resources and services.